sat.trackr.live / text

‹ back to catalog

STARLINK-4584

NORAD 53571 · 2022-101AW

PAYLOAD ACTIVE UNKNOWN

§ Identity

Operator
Country
US
Launch date
2022-08-19
Launch site
AFETR
Launch vehicle
Mass (kg)
RCS (m²)

Purposes: comms

External: N2YO · Heavens-Above · Gunter

§ Orbital elements

Epoch: 2026-09-19T13:20:04.763616Z

Period
93.85 min
Inclination
53.1590°
Eccentricity
0.0001247
Mean motion
15.34387043 rev/d
Perigee alt
461.9 km
Apogee alt
463.6 km
Semi-major
6,840.9 km
B*
1.4800e-5
RAAN
248.3490°
Arg perigee
88.0726°
Mean anomaly
272.0419°
Rev number
22,661

§ Raw data

STARLINK-45841 53571U 22101AW  26262.55561069  .00000124  00000+0  14800-4 0  99952 53571  53.1590 248.3490 0001247  88.0726 272.0419 15.34387043226611

JSON: /api/v1/satellites/53571 · /tle

For live sub-satellite position, see the globe view (requires WebGL).

§ Visibility from observer

Set your observer location to see the next 7 days of passes ≥ 10°. The values pass through the URL so the page stays shareable.

No JS? Fill the form by hand. The geolocation button needs JavaScript.